Flag for U.S.A. Weather past 2 weeks in Providence, Rhode Island, U.S.A.

Now
84 °F

Scattered clouds.


Feels Like: 83 °F
Forecast: 57 / 83 °F
Wind: 20 mph from Southwest

Location: Green State Airport

Current Time: May 30, 2015 at 2:52:53 PM

Latest Report: May 30, 2015 at 1:51 PM


Visibility: 10 mi

Pressure: 30.15 "Hg

Humidity: 40%

Dew point: 57 °F

Location of ProvidenceLocation

Historic Weather in Providence — Graph

°F

Providence temperature yesterday

Maximum temperature yesterday: 81 °F (at 1:51 PM)
Minimum temperature yesterday: 60 °F (at 4:51 AM)
Average temperature yesterday: 70 °F

Past Weeks' High & Low Weather Summary

 TemperatureHumidityPressure
High84 °F (May 30, 12:51 PM)97% (May 17, 2:51 AM)30.35 "Hg (May 17, 2:51 AM)
Low45 °F (May 21, 5:51 AM)18% (May 24, 3:51 PM)29.72 "Hg (May 19, 11:59 PM)
Average64 °F64%30.12 "Hg
* Reported May 15 1:51 PM — May 30 1:51 PM, Providence, Weather by CustomWeather, © 2015

Note: Actual official high and low records may vary slightly from our data, if they occured in-between our weather recording intervals... More about our weather records

Advertising

Providence weather history for previous 24 hours

 ConditionsComfort  
Time TempWeatherWind HumidityBarometerVisibility
1:51 PM
Sat, May 30
84 °FScattered clouds.20 mph40%30.15 "Hg10 mi
12:51 PM84 °FScattered clouds.21 mph41%30.16 "Hg10 mi
11:51 AM81 °FScattered clouds.17 mph53%30.19 "Hg10 mi
10:51 AM78 °FScattered clouds.18 mph62%30.21 "Hg10 mi
9:51 AM74 °FScattered clouds.15 mph69%30.22 "Hg10 mi
8:51 AM69 °FBroken clouds.9 mph76%30.22 "Hg10 mi
7:51 AM62 °FFog.8 mph93%30.24 "Hg5 mi
6:51 AM60 °FFog.6 mph96%30.24 "Hg1 mi
5:51 AM58 °FFog.6 mph97%30.23 "Hg1 mi
4:51 AM57 °FFog.7 mph96%30.21 "Hg1 mi
3:51 AM56 °FFog.7 mph97%30.22 "Hg1 mi
2:59 AM58 °FFog.5 mph97%30.22 "Hg0 mi
1:51 AM58 °FFog.3 mph97%30.22 "Hg0 mi
12:51 AM59 °FClear.5 mph93%30.23 "Hg7 mi
11:51 PM
Fri, May 29
61 °FPassing clouds.No wind87%30.24 "Hg9 mi
10:51 PM62 °FMostly cloudy.3 mph86%30.25 "Hg10 mi
9:51 PM63 °FHigh level clouds.3 mph87%30.26 "Hg10 mi
8:51 PM64 °FPartly sunny.5 mph81%30.25 "Hg10 mi
7:51 PM66 °FPartly sunny.8 mph73%30.25 "Hg10 mi
6:51 PM68 °FPartly sunny.9 mph68%30.25 "Hg10 mi
5:51 PM74 °FPartly sunny.13 mph56%30.24 "Hg10 mi
4:51 PM76 °FPartly sunny.13 mph52%30.25 "Hg10 mi
3:51 PM79 °FScattered clouds.13 mph48%30.26 "Hg10 mi
2:51 PM81 °FScattered clouds.15 mph45%30.26 "Hg10 mi
Weather by CustomWeather, © 2015

See weather overviewHow to use our weather pages